STARLINK-32824, 62817

Orbit data source: Space-Track

STARLINK-32824, 62817 is a payload satellite owned by SpaceX/Seattle (US) in LEO that was launched on Fri, 24 Jan 2025 UTC via an FALCON 9 launch vehicle from the Air Force Western Test Range (AFWTR). Payload-class satellites include a variety of spacecraft equipped with specific instruments for various scientific and technological missions. These include communications satellites like Starlink; space stations such as the ISS; scientific satellites like the Hubble; Earth observation satellites from companies like Planet Labs, Umbra, and HawkEye 360; GPS; miniature CubeSats for education and research; and military/defense satellites.

Loading next visibility...
Identifier
62817, 2025-018M
Orbit
LEO
Last TLE update
8 hours ago
Origin
Manufacturer
SpaceX/Seattle
Mission
Operational Commercial Communications
Bus & Motor
STARLINK V2M, Unknown motor
Mass
730 kg wet, ~700 kg dry
Launch date (UTC)
2025-01-24 (5 months ago)
Launch vehicle
FALCON 9
Launch site
Air Force Western Test Range (AFWTR)
Object type
Payload
Rocket body
Debris
Shape & HBR
Box + 2 Pan, 29 m
Radar Cross Section
33.884 m², Large (>1 m²)

Expand to show TLE details & history

TLE from 8 hours ago
0 STARLINK-32824
1 62817U 25018M   25187.53426142  .00026484  00000-0  90283-3 0  9999
2 62817  53.1586  12.7685 0001036  99.8479 260.2639 15.30210314 26432
Epoch: 2025-07-06T12:49Z
TLE epoch observation values (Epoch: 2025-07-06T12:49:20.186Z)
Latitude
-0.00001°
Longitude
-104.32219°
Altitude
476.204 km
Speed
7.629 km/s
True Right ascension
00h 51m 04s
True Declination
0° 00' 00"
Sunlit
Object was in daylight at epoch
Visualization orbit readout
Latitude
24.59494°
Longitude
-85.92534°
Altitude
475.818 km
Speed
7.631 km/s
Apparent Right ascension
23h 48m 50s
Apparent Declination
-8° 09' 09"
Sunlit
Object is in daylight
Visualization observer readout
Local Sidereal Time
08:47:35
Azimuth
295.649° NW
Elevation
-38.676°
Doppler factor
1
Orbital elements
Apogee altitude
476.151 km
Perigee altitude
474.731 km
Semi-major axis
6,853.578 km
Eccentricity
0.0001
Inclination
53.1586°
RAAN
12.7685°
Arg. of periapsis
99.8479°
True anomaly
Unknown
Mean anomaly
260.2639°
Eccentric anomaly
Unknown
Mean motion
3.82531 °/min
Orbital period
94.11 mins
BSTAR
0.00090283
Loading maneuver chart data...
Loading SW <> Apogee altitude chart data...
Loading historical data...
Loading historical data...
Loading historical data...
Loading historical data...
Loading historical data...
Loading historical data...
Loading historical data...

STARLINK-32824 Visibility forecast

Observer location: undefined°, undefined°

Span
Click to sort rows by Start time (UTC) header in descending order
Start Az.
Max El. time (UTC)
Max El. Az.
Max El.
End time (UTC)
End Az.
5 mins2025-07-06 21:07:43.871Z333.898° NNW2025-07-06 21:10:43.871Z46.073° ENE25.568°2025-07-06 21:12:43.871Z85.96° E
4 mins2025-07-06 22:46:43.871Z273.103° WNW2025-07-06 22:47:43.871Z244.632° WSW29.726°2025-07-06 22:50:43.871Z165.331° S
4 mins2025-07-07 14:04:43.871Z161.986° S2025-07-07 14:05:43.871Z137.561° SSE22.519°2025-07-07 14:08:43.871Z77.088° E
5 mins2025-07-07 15:41:43.871Z268.177° W2025-07-07 15:43:43.871Z326.144° NNW32.385°2025-07-07 15:46:43.871Z34.706° NE
5 mins2025-07-07 20:38:43.871Z343.083° N2025-07-07 20:40:43.871Z31.227° NE24.241°2025-07-07 20:43:43.871Z87.698° E
|